| time (UTC) | temp F | wind direction | speed MPH | gust MPH | rain 1hr in | rain 24hr in | rain mn in | humidity % | barometer mb |
| 20260902044537 | 60 | 293 | 9.0 | 20.0 | 0.01 | 0.07 | 0.07 | 64 | 1008.1 |
| 20260902043036 | 60 | 290 | 9.0 | 15.0 | 0.01 | 0.07 | 0.07 | 65 | 1007.7 |
| 20260902041535 | 61 | 274 | 6.0 | 12.0 | 0.01 | 0.07 | 0.07 | 63 | 1007.8 |
| 20260902040034 | 62 | 278 | 4.0 | 11.0 | 0.00 | 0.06 | 0.06 | 60 | 1007.7 |
| 20260902034532 | 62 | 290 | 6.0 | 9.0 | 0.00 | 0.06 | 0.06 | 58 | 1007.3 |
| 20260902033038 | 63 | 293 | 10.0 | 14.0 | 0.00 | 0.06 | 0.06 | 57 | 1007.0 |
| 20260902031533 | 63 | 316 | 9.0 | 17.0 | 0.00 | 0.06 | 0.06 | 57 | 1006.8 |
| 20260902030028 | 63 | 292 | 12.0 | 20.0 | 0.00 | 0.06 | 0.06 | 56 | 1006.2 |
| 20260902024528 | 64 | 298 | 15.0 | 25.0 | 0.00 | 0.06 | 0.06 | 56 | 1006.0 |
| 20260902023028 | 64 | 277 | 12.0 | 18.0 | 0.00 | 0.06 | 0.06 | 55 | 1006.2 |
| 20260902021534 | 65 | 279 | 12.0 | 19.0 | 0.00 | 0.06 | 0.06 | 54 | 1006.4 |
| 20260902020026 | 65 | 304 | 9.0 | 18.0 | 0.00 | 0.06 | 0.06 | 52 | 1006.3 |
| 20260902014535 | 66 | 300 | 10.0 | 20.0 | 0.00 | 0.06 | 0.06 | 51 | 1006.2 |
| 20260902013027 | 67 | 288 | 15.0 | 22.0 | 0.00 | 0.06 | 0.06 | 50 | 1005.8 |
| 20260902011535 | 69 | 305 | 7.0 | 16.0 | 0.00 | 0.06 | 0.06 | 48 | 1005.4 |
| 20260902010041 | 70 | 293 | 11.0 | 20.0 | 0.00 | 0.06 | 0.06 | 46 | 1005.3 |
| 20260902004532 | 71 | 304 | 10.0 | 19.0 | 0.00 | 0.06 | 0.06 | 44 | 1005.0 |
| 20260902003024 | 72 | 299 | 11.0 | 19.0 | 0.00 | 0.06 | 0.06 | 42 | 1004.8 |
| 20260902001524 | 74 | 302 | 13.0 | 20.0 | 0.00 | 0.06 | 0.06 | 40 | 1004.9 |
| 20260902000122 | 75 | 275 | 14.0 | 22.0 | 0.00 | 0.06 | 0.06 | 38 | 1004.6 |
| 20260901234546 | 75 | 293 | 13.0 | 20.0 | 0.00 | 0.06 | 0.06 | 39 | 1004.6 |
| 20260901233020 | 76 | 293 | 10.0 | 19.0 | 0.00 | 0.06 | 0.06 | 37 | 1004.6 |
| 20260901231528 | 76 | 297 | 13.0 | 20.0 | 0.00 | 0.06 | 0.06 | 36 | 1004.7 |
| 20260901230020 | 77 | 281 | 13.0 | 22.0 | 0.00 | 0.06 | 0.06 | 34 | 1004.6 |
| 20260901224525 | 77 | 291 | 14.0 | 19.0 | 0.00 | 0.06 | 0.06 | 35 | 1004.6 |
| 20260901223032 | 77 | 296 | 14.0 | 24.0 | 0.00 | 0.06 | 0.06 | 33 | 1004.7 |
| 20260901221524 | 77 | 300 | 18.0 | 24.0 | 0.00 | 0.06 | 0.06 | 34 | 1004.8 |
| 20260901220019 | 78 | 295 | 11.0 | 20.0 | 0.00 | 0.06 | 0.06 | 33 | 1004.6 |
| 20260901214517 | 78 | 297 | 13.0 | 24.0 | 0.00 | 0.06 | 0.06 | 32 | 1004.6 |
| 20260901213016 | 80 | 277 | 15.0 | 20.0 | 0.00 | 0.06 | 0.06 | 29 | 1004.7 |
| 20260901211515 | 79 | 302 | 13.0 | 21.0 | 0.00 | 0.06 | 0.06 | 28 | 1004.7 |
| 20260901210012 | 79 | 300 | 14.0 | 21.0 | 0.00 | 0.06 | 0.06 | 30 | 1004.7 |
| 20260901204514 | 79 | 288 | 14.0 | 20.0 | 0.00 | 0.06 | 0.06 | 31 | 1005.0 |
| 20260901203016 | 78 | 295 | 11.0 | 18.0 | 0.00 | 0.06 | 0.06 | 32 | 1005.2 |
| 20260901201504 | 78 | 284 | 10.0 | 14.0 | 0.00 | 0.06 | 0.06 | 32 | 1005.3 |
| 20260901200107 | 77 | 277 | 9.0 | 17.0 | 0.00 | 0.06 | 0.06 | 34 | 1005.5 |
| 20260901194605 | 76 | 293 | 9.0 | 20.0 | 0.00 | 0.06 | 0.06 | 36 | 1005.7 |
| 20260901193054 | 75 | 302 | 13.0 | 19.0 | 0.00 | 0.06 | 0.06 | 39 | 1006.1 |
| 20260901191553 | 75 | 298 | 13.0 | 19.0 | 0.00 | 0.06 | 0.06 | 40 | 1006.3 |
| 20260901190104 | 75 | 291 | 15.0 | 22.0 | 0.00 | 0.06 | 0.06 | 38 | 1006.5 |
| 20260901184549 | 74 | 280 | 11.0 | 18.0 | 0.00 | 0.06 | 0.06 | 42 | 1006.6 |
| 20260901183048 | 72 | 268 | 11.0 | 15.0 | 0.00 | 0.06 | 0.06 | 43 | 1006.8 |
| 20260901181550 | 72 | 285 | 8.0 | 15.0 | 0.00 | 0.06 | 0.06 | 44 | 1007.0 |
| 20260901180041 | 72 | 286 | 10.0 | 18.0 | 0.00 | 0.06 | 0.06 | 45 | 1007.0 |
| 20260901174538 | 71 | 295 | 11.0 | 18.0 | 0.00 | 0.06 | 0.06 | 45 | 1006.9 |
| 20260901173048 | 70 | 260 | 12.0 | 20.0 | 0.00 | 0.06 | 0.06 | 46 | 1006.9 |
| 20260901171534 | 68 | 259 | 4.0 | 10.0 | 0.00 | 0.06 | 0.06 | 46 | 1006.9 |
| 20260901170029 | 68 | 295 | 5.0 | 8.0 | 0.00 | 0.06 | 0.06 | 49 | 1006.9 |
| 20260901164528 | 67 | 320 | 7.0 | 11.0 | 0.00 | 0.06 | 0.06 | 52 | 1006.9 |
| 20260901163028 | 64 | 300 | 4.0 | 6.0 | 0.00 | 0.06 | 0.06 | 54 | 1007.0 |
| 20260901161527 | 64 | 312 | 4.0 | 8.0 | 0.00 | 0.06 | 0.06 | 56 | 1007.0 |
| 20260901160029 | 64 | 292 | 8.0 | 13.0 | 0.00 | 0.06 | 0.06 | 59 | 1006.9 |
| 20260901154526 | 63 | 293 | 11.0 | 14.0 | 0.00 | 0.06 | 0.06 | 60 | 1006.9 |
| 20260901153035 | 63 | 276 | 9.0 | 14.0 | 0.00 | 0.06 | 0.06 | 63 | 1006.9 |
| 20260901151525 | 62 | 268 | 9.0 | 14.0 | 0.00 | 0.06 | 0.06 | 64 | 1006.8 |
| 20260901150024 | 61 | 295 | 6.0 | 11.0 | 0.00 | 0.06 | 0.06 | 66 | 1006.7 |
| 20260901144533 | 0 | 0.0 | 0.0 | 0.00 | 0.06 | 0.06 | 1006.7 | ||
| 20260901143020 | 0 | 0.0 | 0.0 | 0.00 | 0.06 | 0.06 | 1006.6 | ||
| 20260901141516 | 0 | 0.0 | 0.0 | 0.00 | 0.06 | 0.06 | 1006.6 | ||
| 20260901140012 | 0 | 0.0 | 0.0 | 0.06 | 0.06 | 0.06 | 1006.5 | ||
| 20260901134507 | 0 | 0.0 | 0.0 | 0.06 | 0.06 | 0.06 | 1006.4 | ||
| 20260901133005 | 0 | 0.0 | 0.0 | 0.06 | 0.06 | 0.06 | 1006.4 | ||
| 20260901131605 | 59 | 274 | 4.0 | 7.0 | 0.06 | 0.06 | 0.06 | 68 | 1006.4 |
| 20260901130058 | 58 | 272 | 5.0 | 7.0 | 0.00 | 0.00 | 0.00 | 68 | 1006.4 |
| 20260901124559 | 56 | 270 | 3.0 | 6.0 | 0.00 | 0.00 | 0.00 | 72 | 1006.3 |
| 20260901123054 | 58 | 277 | 3.0 | 4.0 | 0.00 | 0.00 | 0.00 | 68 | 1006.3 |
| 20260901121609 | 58 | 295 | 2.0 | 4.0 | 0.00 | 0.00 | 0.00 | 67 | 1006.2 |
| 20260901120059 | 57 | 286 | 0.0 | 0.0 | 0.00 | 0.00 | 0.00 | 67 | 1006.2 |
| 20260901114557 | 58 | 284 | 0.0 | 2.0 | 0.00 | 0.00 | 0.00 | 64 | 1006.4 |
| 20260901113046 | 59 | 293 | 2.0 | 4.0 | 0.00 | 0.00 | 0.00 | 63 | 1006.3 |
| 20260901111549 | 60 | 295 | 2.0 | 6.0 | 0.00 | 0.00 | 0.00 | 60 | 1006.4 |
| 20260901110047 | 59 | 268 | 2.0 | 4.0 | 0.00 | 0.00 | 0.00 | 61 | 1006.3 |
| 20260901104541 | 59 | 281 | 3.0 | 4.0 | 0.00 | 0.00 | 0.00 | 59 | 1006.4 |
| 20260901103040 | 60 | 290 | 2.0 | 4.0 | 0.00 | 0.00 | 0.00 | 57 | 1006.4 |
| 20260901101540 | 60 | 297 | 3.0 | 4.0 | 0.00 | 0.00 | 0.00 | 56 | 1006.4 |
| 20260901100039 | 60 | 287 | 3.0 | 5.0 | 0.00 | 0.00 | 0.00 | 56 | 1006.4 |
| 20260901094537 | 60 | 289 | 4.0 | 6.0 | 0.00 | 0.00 | 0.00 | 56 | 1006.4 |
| 20260901093045 | 60 | 282 | 3.0 | 5.0 | 0.00 | 0.00 | 0.00 | 58 | 1006.5 |
| 20260901091554 | 60 | 283 | 2.0 | 3.0 | 0.00 | 0.00 | 0.00 | 59 | 1006.6 |
| 20260901090032 | 60 | 291 | 2.0 | 4.0 | 0.00 | 0.00 | 0.00 | 58 | 1006.7 |
| 20260901084533 | 60 | 281 | 1.0 | 3.0 | 0.00 | 0.00 | 0.00 | 57 | 1006.6 |
| 20260901083030 | 61 | 278 | 5.0 | 6.0 | 0.00 | 0.00 | 0.00 | 57 | 1006.6 |
| 20260901081529 | 61 | 283 | 4.0 | 7.0 | 0.00 | 0.00 | 0.00 | 55 | 1006.7 |
| 20260901080027 | 61 | 287 | 5.0 | 7.0 | 0.00 | 0.00 | 0.00 | 55 | 1006.8 |
| 20260901074524 | 62 | 297 | 4.0 | 6.0 | 0.00 | 0.00 | 0.00 | 53 | 1006.9 |
| 20260901073025 | 62 | 297 | 5.0 | 7.0 | 0.00 | 0.00 | 0.00 | 51 | 1006.9 |
| 20260901071520 | 60 | 289 | 4.0 | 5.0 | 0.00 | 0.00 | 0.00 | 51 | 1007.0 |
| 20260901070025 | 60 | 281 | 4.0 | 5.0 | 0.00 | 0.00 | 0.00 | 49 | 1007.0 |
| 20260901064513 | 61 | 287 | 4.0 | 6.0 | 0.00 | 0.00 | 0.00 | 46 | 1007.1 |
| 20260901063007 | 61 | 291 | 4.0 | 6.0 | 0.00 | 0.00 | 0.00 | 44 | 1007.1 |
| 20260901061503 | 62 | 281 | 4.0 | 6.0 | 0.00 | 0.00 | 0.00 | 41 | 1007.2 |
| 20260901060059 | 62 | 287 | 4.0 | 6.0 | 0.00 | 0.00 | 0.00 | 38 | 1007.4 |
| 20260901054554 | 63 | 294 | 3.0 | 6.0 | 0.00 | 0.00 | 0.00 | 36 | 1007.5 |
| 20260901053112 | 63 | 287 | 4.0 | 7.0 | 0.00 | 0.00 | 0.00 | 36 | 1007.7 |
| 20260901051545 | 64 | 289 | 4.0 | 6.0 | 0.00 | 0.00 | 0.00 | 35 | 1007.7 |
| 20260901050041 | 64 | 289 | 3.0 | 4.0 | 0.00 | 0.00 | 0.00 | 35 | 1007.7 |